Torna al catalogo

ION SCV-016

AttivoScienzaPO
NORAD 62628·PAYLOAD·🇮🇹 Italy

Lanciato Jan 14, 2025 da Vandenberg Space Force Base

Loading…

Prossimi Passaggi (prossime 24 ore)

TLE

AggiornatoSource: Space-Track

Epoca: Sep 13, 2026, 22:40 UTC

1 62628U 25009V   26256.94487581  .00018304  00000-0  38025-3 0  9994
2 62628  97.4223 285.4718 0575191 184.8640 174.6825 14.54195894 88433

Traccia ION SCV-016 in tempo reale con AllMySat

Download on the App Store